Hourly Data Report for June 24, 2021

CARIBOU POINT (AUT)
NOVA SCOTIA
Current Station Operator: ECCC - MSC

45°46'00.000" N
62°41'00.000" W
2.40 m
8200774
71415
WBK

Download Data

Hourly Data (June 2021)
Hourly Data Report for June 24, 2021
TIME
LST
Temp Definition
°C
Dew Point Definition
°C
Rel Hum Definition
%
Precip. Amount Definition
mm

Wind Dir Definition
10's deg

Wind Spd Definition
km/h
Visibility Definition
km
Stn Press Definition
kPa
Hmdx Definition


Wind Chill Definition


Weather Definition


00:00 14.3 9.0 71 0.0 26 13   102.17     LegendNANA
01:00 13.9 8.4 69 0.0 26 14   102.26     LegendNANA
02:00 13.2 7.8 70 0.0 26 12   102.36     LegendNANA
03:00 12.6 8.0 74 0.0 27 11   102.46     LegendNANA
04:00 12.2 8.2 76 0.0 27 13   102.56     LegendNANA
05:00 12.4 8.5 77 0.0 27 10   102.66     LegendNANA
06:00 13.8 8.9 72 0.0 27 13   102.74     LegendNANA
07:00 15.2 9.9 71 0.0 29 16   102.83     LegendNANA
08:00 16.7 11.1 69 0.0 28 19   102.93     LegendNANA
09:00 17.1 12.7 75 0.0 30 15   102.99     LegendNANA
10:00 17.4 13.2 76 0.0 32 10   103.02     LegendNANA
11:00 18.3 11.9 67 0.0 31 12   103.06     LegendNANA
12:00 18.8 12.9 69 0.0 32 9   103.05     LegendNANA
13:00 19.3 13.1 68 0.0 36 8   103.01     LegendNANA
14:00 19.6 14.3 71 0.0 6 7   103.01     LegendNANA
15:00 19.3 12.2 64 0.0 10 12   102.99     LegendNANA
16:00 19.1 12.9 68 0.0 10 16   102.97     LegendNANA
17:00 19.2 12.5 65 0.0 10 13   102.95     LegendNANA
18:00 19.1 11.1 60 0.0 10 10   102.97     LegendNANA
19:00 17.9 11.3 65 0.0 9 12   102.99     LegendNANA
20:00 16.7 11.7 72 0.0 15 9   103.01     LegendNANA
21:00 16.9 10.7 67 0.0 20 11   103.03     LegendNANA
22:00 16.7 9.5 63 0.0 21 9   103.06     LegendNANA
23:00 15.8 8.8 63 0.0 23 12   103.06     LegendNANA

Notes on Data Quality.

Legend

  • E = Estimated
  • M = Missing
  • NA = Not Available*
  • [empty] = Indicates an unobserved value
Date modified: